Location: Albany
(35.0170°S, 117.8920°E)
Time: 23:49:32
(UTC+08:00)

S-56A Canister/Altair - Pass Details

Date: 21 June 2021
Orbit: 632 x 2501 km, 38.9° (Epoch: 24 July)

Event Time Altitude Azimuth Distance (km) Brightness Sun altitude
Rises 20:54:03 0° 249° (WSW) 6,154 12.8 -46.1°
Reaches altitude 10° 20:58:17 10° 250° (WSW) 5,046 12.2 -47.0°
Enters shadow 21:09:34 58° 274° (W) 2,334 9.8 -49.3°
